Погода в Ко-Куте

Таиланд     11°39′39″N   102°32′13″E
темп.,
°C
ветер,
м/с
пор.,
м/с
влажн.,
%
обл.,
%
осадки,
мм/ч
давл.,
гПа
погр.,
м
6 августа, пт
пт601:00+28з6981100 10.2 1009780
04:00+27з7982100 6.4 1008738
07:00+28зюз8979100 13.6 1009836
10:00+28зюз8979100 3.4 1010872
13:00+29зюз8979100 5.6 1009934
16:00+28зюз81082100 1.6 1007778
19:00+28зюз81083100 8.8 1008675
22:00+28з81081100 6.7 1010727
7 августа, сб
сб701:00+28з81078100 12.4 1009930
04:00+28з7976100 5.1 10081077
07:00+28зюз7879100 8.6 1010818
10:00+28зюз7881100 6.6 1011729
13:00+28зюз8979100 13.5 1009805
16:00+28зюз91080100 3.3 1008863
19:00+28зюз7882100 7.6 1009597
22:00+28з6782100 7.9 1011456
8 августа, вс
вс801:00+28з7980100 15.0 1010612
04:00+28з7882100 6.3 1008555
07:00+28з887797 9.7 1010991
10:00+29з7876100 0.2 10111010
13:00+29зюз7877100 0.6 1010944
16:00+28зюз787999 0.9 1008798
19:00+28зюз7882100 2.9 1009708
22:00+28зюз7882100 5.0 1011579
9 августа, пн
пн901:00+28з6882100 11.3 1009609
04:00+28зюз6881100 4.9 1009490
07:00+28з7880100 9.3 1009643
10:00+28з677996 4.2 1010774
13:00+28з567799 4.3 1008875
16:00+29з667615 0.0 1006839
19:00+28зюз3379100 0.6 1007312
22:00+28юз3479100 0.6 1009288
10 августа, вт
вт1001:00+28зюз467998 3.1 1007502
04:00+29зюз6777100 1.2 1006734
07:00+28зюз7879100 1.3 1007870
10:00+29зюз7879100 0.1 1008883
13:00+29зюз7879100 0.2 1007856
16:00+29зюз7778100 0.1 1005798
19:00+29юз4478100 0.1 1006594
22:00+29ююз457978 2.2 1008325